Home   Weather   Modesto   Past weeks

Flag for USA Past Weather in Modesto, California, USA — Yesterday and Last 2 Weeks

Now
97 °F

Sunny.


Feels Like: 93 °F
Forecast: 65 / 98 °F
Wind: 6 mph from East

Location: Modesto City-County-Sham Field

Current Time: May 22, 2017 at 2:26:28 pm

Latest Report: May 22, 2017 at 1:53 pm


Visibility: 10 mi

Pressure: 29.89 "Hg

Humidity: 19%

Dew Point: 48 °F

Location of ModestoLocation

Past Weather in Modesto — Graph

°F

Modesto Temperature Yesterday

Maximum temperature yesterday: 98 °F (at 4:53 pm)
Minimum temperature yesterday: 63 °F (at 3:53 am)
Average temperature yesterday: 82 °F

High & Low Weather Summary for the Past Weeks

 TemperatureHumidityPressure
High98 °F (May 21, 4:53 pm)90% (May 8, 4:53 am)30.14 "Hg (May 8, 4:53 am)
Low49 °F (May 14, 3:53 am)12% (May 18, 4:53 pm)29.73 "Hg (May 9, 5:53 pm)
Average69 °F48%29.93 "Hg
* Reported May 7 12:53 pm — May 22 12:53 pm, Modesto. Weather by CustomWeather, © 2017

Note: Actual official high and low records may vary slightly from our data, if they occured in-between our weather recording intervals... More about our weather records

Advertising

Modesto Weather History for the Previous 24 Hours

Scroll right to see more
 ConditionsComfort  
Time TempWeatherWind HumidityBarometerVisibility
12:53 pm
Mon, May 22
93 °FSunny.5 mph25%29.90 "Hg10 mi
11:53 am91 °FSunny.6 mph25%29.92 "Hg10 mi
10:53 am87 °FSunny.6 mph25%29.93 "Hg10 mi
9:53 am83 °FSunny.5 mph30%29.93 "Hg10 mi
8:53 am78 °FSunny.5 mph36%29.92 "Hg10 mi
7:53 am74 °FSunny.6 mph43%29.91 "Hg10 mi
6:53 am67 °FSunny.N/A63%29.90 "Hg10 mi
5:53 am66 °FSunny.No wind61%29.89 "Hg10 mi
4:53 am69 °FClear.No wind51%29.88 "Hg10 mi
3:53 am71 °FClear.3 mph45%29.88 "Hg10 mi
2:53 am72 °FClear.3 mph48%29.88 "Hg10 mi
1:53 am74 °FClear.5 mph48%29.89 "Hg10 mi
12:53 am74 °FClear.6 mph46%29.89 "Hg10 mi
11:53 pm
Sun, May 21
78 °FClear.6 mph35%29.88 "Hg10 mi
10:53 pm79 °FClear.6 mph30%29.88 "Hg10 mi
9:53 pm82 °FClear.8 mph31%29.88 "Hg10 mi
8:53 pm86 °FClear.6 mph28%29.85 "Hg10 mi
7:53 pm91 °FSunny.6 mph19%29.84 "Hg10 mi
6:53 pm95 °FSunny.7 mph19%29.83 "Hg10 mi
5:53 pm97 °FSunny.7 mph17%29.83 "Hg10 mi
4:53 pm98 °FSunny.6 mph14%29.83 "Hg10 mi
3:53 pm97 °FSunny.5 mph17%29.84 "Hg10 mi
2:53 pm96 °FSunny.6 mph19%29.86 "Hg10 mi
Weather by CustomWeather, © 2017

See weather overviewHow to use our weather pages